Printer-friendly version
Follow the MPC on Twitter Follow the MPC on Facebook The MPC blog
Minor Planet Center

MPEC 2010-B10 : 2006 SS134

The following Minor Planet Electronic Circular may be linked-to from your own Web pages, but must not otherwise be redistributed electronically.

A form allowing access to any MPEC is at the bottom of this page.


Read MPEC 2010-B09 Read MPEC 2010-B11


M.P.E.C. 2010-B10                                Issued 2010 Jan. 19, 17:19 UT

     The Minor Planet Electronic Circulars contain information on unusual
         minor planets and routine data on comets.  They are published
   on behalf of Commission 20 of the International Astronomical Union by the
          Minor Planet Center, Smithsonian Astrophysical Observatory,
                          Cambridge, MA 02138, U.S.A.

             Prepared using the Tamkin Foundation Computer Network

                              MPC@CFA.HARVARD.EDU
          URL http://www.cfa.harvard.edu/iau/mpc.html  ISSN 1523-6714

                                  2006 SS134

                           Revision to MPEC 2006-S83

Additional Observations:
     K06SD4S 2C2009 12 09.58553211 11 55.160+38 18 35.58         23.4 R EB010568
     K06SD4S 2C2009 12 09.59080311 11 55.776+38 18 37.33         23.2 R EB010568
     K06SD4S 2C2009 12 09.59694111 11 56.489+38 18 39.43         23.2 R EB010568
     K06SD4S 2C2010 01 18.53496912 20 58.651+46 19 10.82         21.4 R EB010568
     K06SD4S 2C2010 01 18.53771912 20 58.840+46 19 14.48         21.5 R EB010568

Observer details:
568 Mauna Kea.  Observers M. Micheli, G. T. Elliott, D. J. Tholen.  Measurer
    D. J. Tholen.  2.24-m University of Hawaii reflector.

First and last observations above in comparison with prediction:
Residuals in seconds of arc (or two decimals in degrees), reference and Delta-T
091209 568 0.04- 0.04+    100118 568 0.08- 0.10+    MPO111258   +0.10 day

Orbital elements:
2006 SS134                                          PHA, Earth MOID = 0.0305 AU
Epoch 2010 Jan. 4.0 TT = JDT 2455200.5                  MPC
M 258.04163              (2000.0)            P               Q
n   0.77751890     Peri.  256.04874     -0.09335394     +0.99422583
a   1.1712836      Node     9.10332     -0.73445640     -0.03288517
e   0.4418691      Incl.   19.53919     -0.67220446     -0.10214478
P   1.27           H   21.4           G   0.15           U   2
Residuals in seconds of arc
060928 703  0.5-  0.3+    061001 H51 (1.8+  0.7-)   061008 240  0.2+  0.5+
060928 703  0.3-  0.2+    061001 H51  0.2-  0.1+    061008 240  0.0   0.3+
060928 703  0.3+  0.2-    061001 H51 (2.1+  1.0-)   061008 240  0.1+  0.6+
060928 703  0.8-  0.6-    061001 H51 (1.6-  1.0+)   061009 A78  0.9-  0.1+
060928 703  0.4-  0.2+    061001 H51  0.9+  0.5-    061009 A78  0.5-  1.2-
060928 703  0.2+  0.1-    061001 H51  0.6-  0.3+    061009 A78  0.1-  0.9-
060928 703  0.4-  0.3+    061001 H51 (4.2+  1.9-)   061009 560  0.5+  0.4+
060928 703  0.8-  0.9+    061001 H06  0.5+  0.4-    061009 560  0.2-  0.3+
060928 703  0.9-  0.7+    061001 H06  0.4+  0.0     061009 560  0.2-  0.3+
060928 703  0.3-  0.4+    061001 H06  0.2+  0.0     061010 151  0.8-  0.3+
060928 595  0.8+  0.3-    061001 H06  0.5-  0.2+    061010 151  0.5-  0.6+
060928 595  0.4+  0.0     061002 J95  0.1+  0.1-    061010 151  0.2-  1.0+
060928 595  0.7+  0.3-    061002 J95  0.3+  0.3-    061010 151  0.4+  0.7-
060929 118  0.7+  0.2-    061002 J95  0.2+  0.3-    061010 151  0.4+  0.5-
060929 118  0.9+  0.6-    061003 704  0.2-  0.4+    061010 151  0.3+  0.3-
060929 118  0.3+  0.1-    061003 704  0.2+  0.8+    061010 A53  0.0   0.4+
060929 118  0.4-  0.4+    061003 704  0.1-  0.3+    061010 A53  0.5+  0.6+
060929 118  0.1+  0.0     061003 704  0.3+  0.6+    061010 A53  0.1-  0.4+
060929 118  0.7+  0.2-    061003 704  0.3+  0.5+    061011 046  0.4+  0.3+
060929 118  1.0+  0.3-    061003 H45  0.4-  0.0     061011 046  0.2+  1.0+
060929 118  0.6+  0.2+    061003 H45  0.5-  0.3-    061011 046  0.0   1.4+
060929 H45  0.1-  0.0     061003 H45  0.3-  0.1+    061011 046  1.0+  0.3+
060929 H45  0.6-  0.2+    061003 H45  0.5-  0.0     061011 046  0.9+  0.2+
060929 H45  0.8-  0.1-    061003 H45  0.5-  0.0     061012 240  0.3-  0.2-
060929 H45  0.2-  0.1-    061003 H45  0.3-  0.1-    061012 240  0.1+  0.0
060929 H45  0.5-  0.0     061003 H45  0.4-  0.1-    061012 240  0.3+  0.1-
060929 H45  0.4-  0.0     061003 H45  0.3-  0.0     061012 240  0.0   0.1-
060929 H45  0.7-  0.0     061003 H45  0.3-  0.0     061012 240  0.1-  0.1-
060929 H45  0.4-  0.2+    061004 703  0.1+  0.5-    061012 240  0.1+  0.0
060929 H45  0.2-  0.1+    061004 703  0.4-  0.1-    061013 H98 (1.7-  0.3-)
060929 H45  0.7-  0.0     061004 703  0.4-  0.1-    061013 H98  0.2-  0.1-
060929 H45  0.3-  0.1-    061004 703  0.9-  0.2-    061013 170  0.3+  0.6-
060929 H45  0.4-  0.0     061004 198  0.3-  0.2-    061013 170  0.2+  0.6-
060930 J95  0.3+  0.1-    061004 198  0.3-  0.2-    061013 170  0.1+  0.6-
060930 J95  0.3+  0.3-    061004 198  0.1-  0.1-    061021 448  0.2+  0.2-
060930 J95  0.4+  0.1-    061004 198  0.1-  0.0     061021 448  0.2+  0.5+
060930 B03 (2.8+  0.5+)   061004 198  0.3-  0.0     061021 448  0.4+  0.1-
060930 B03 (3.4+  0.8-)   061005 A48  0.8-  0.9+    061021 448  0.0   0.2-
060930 B03 (3.8+  0.4-)   061005 A48  1.0-  0.4+    061021 H45  0.1+  0.3-
060930 B03  0.1+  0.3-    061005 A48  1.2-  0.4+    061021 H45  0.1-  0.5-
060930 B03  0.4-  1.0+    061005 A48 (1.9-  0.1-)   061021 H45  0.3-  0.0
060930 B03 (3.1+  0.5+)   061005 204  0.2+  0.1-    061021 H45  0.6-  0.2+
060930 B03 (2.8+  0.7+)   061005 204  0.2-  0.3+    061021 H45  0.2+  0.2-
060930 B03  0.8+  0.5-    061005 204  0.2+  0.0     061023 711  0.7-  0.2+
060930 B03  0.5+  1.4+    061005 203  0.0   0.4-    061023 711  0.1+  0.4+
060930 B03 (1.8+  1.4+)   061005 203  0.6-  0.3+    061031 291  0.4+  0.1-
060930 A78  1.4-  1.3-    061005 203  0.4-  0.2-    061031 291  0.3+  0.1+
060930 A78 (0.7-  1.6-)   061006 649  0.1-  0.2+    061031 291  0.3+  0.1+
060930 A78 (0.5-  1.6-)   061006 649  0.1-  0.1-    061110 291  0.0   0.0
061001 H51  1.0+  0.1+    061006 649  0.3-  0.0     061110 291  0.3+  0.2+
061001 H51  0.4-  0.4+    061006 649  0.3+  0.2-    061110 291  0.3+  0.1-
061001 H51  0.3+  0.4-    061006 160  0.1+  0.1+    061124 291  1.3+  0.1+
061001 H51  1.5-  0.8+    061006 160  0.3-  0.2+    061124 291  0.1+  0.5-
061001 H51 (3.9-  1.6+)   061006 160  0.5-  0.2-    061124 291  0.6+  1.3+
061001 H51  1.3-  0.8+    061006 160  0.0   0.2+    091209 568  0.0   0.1+
061001 H51 (1.7+  0.9-)   061006 160  0.0   0.0     091209 568  0.1-  0.1+
061001 H51  0.8-  0.4+    061006 160  0.3-  0.2+    091209 568  0.1-  0.2+
061001 H51  0.2-  0.2+    061008 240  0.9+  0.2-    100118 568  0.1+  0.1-
061001 H51  0.3-  0.1+    061008 240  0.8+  0.1-    100118 568  0.0   0.0
061001 H51  1.0+  0.5-    061008 240  0.7+  0.0
061001 H51  0.9+  0.5-    061008 240  0.2+  0.0

Ephemeris:
2006 SS134               a,e,i = 1.17, 0.44, 20                  q = 0.6537
Date    TT    R. A. (2000) Decl.     Delta      r     Elong.  Phase     V
2010 01 14    12 14.80   +44 48.9    0.624    1.405   120.1    37.3    22.6
2010 01 19    12 21.56   +46 29.0    0.575    1.378   122.0    37.3    22.4
2010 01 24    12 27.39   +48 24.2    0.528    1.350   123.6    37.4    22.2
2010 01 29    12 32.08   +50 36.2    0.482    1.321   124.8    37.8    21.9
2010 02 03    12 35.26   +53 07.3    0.438    1.290   125.4    38.5    21.7
2010 02 08    12 36.34   +56 00.3    0.397    1.259   125.4    39.7    21.5
2010 02 13    12 34.34   +59 18.2    0.357    1.226   124.6    41.5    21.2
2010 02 18    12 27.46   +63 04.2    0.319    1.192   122.9    44.2    21.0
2010 02 23    12 12.07   +67 20.6    0.283    1.157   119.9    47.9    20.8
2010 02 28    11 39.34   +72 05.1    0.250    1.121   115.5    52.9    20.6
2010 03 05    10 24.42   +76 46.0    0.219    1.084   109.3    59.7    20.4

Timothy B. Spahr             (C) Copyright 2010 MPC           M.P.E.C. 2010-B10

Read MPEC 2010-B09 Read MPEC 2010-B11


MPEC number:

Enter an MPEC number in one of the following forms:

  • 1997-B01 (the full form)
  • J97B01 (the packed version of the full form)
  • B01 (the abbreviated form)

Valid HTML 4.01!